This is the latest recevied weather packets stored in our database for station/object PA3DZX-13. If no packets are shown the sender has not sent any weather packets the latest 10 day(s).
| Time | Temp. | Humidity | Pressure | Rain* | Wind** | Luminosity | Snow |
|---|---|---|---|---|---|---|---|
| 1788092497 | 18.89° C | 83% | 1010.6 hPa | 0 mm | - | - | - |
| 1788091597 | 17.78° C | 82% | 1010.5 hPa | 0 mm | - | - | - |
| 1788090696 | 17.78° C | 82% | 1010.4 hPa | 0 mm | - | - | - |
| 1788089796 | 18.89° C | 80% | 1010.2 hPa | 0 mm | - | - | - |
| 1788088895 | 18.89° C | 78% | 1010.1 hPa | 0 mm | - | - | - |
| 1788087995 | 17.78° C | 83% | 1010.1 hPa | 0 mm | - | - | - |
| 1788087094 | 17.78° C | 84% | 1010.1 hPa | 0 mm | - | - | - |
| 1788086195 | 16.67° C | 89% | 1010 hPa | 0 mm | - | - | - |
| 1788085294 | 16.67° C | 91% | 1010 hPa | 0 mm | - | - | - |
| 1788084394 | 16.67° C | 90% | 1009.9 hPa | 0 mm | - | - | - |
| 1788083492 | 16.67° C | 87% | 1009.8 hPa | 0 mm | - | - | - |
| 1788082593 | 17.78° C | 83% | 1009.7 hPa | 0 mm | - | - | - |
| 1788081691 | 17.78° C | 82% | 1009.5 hPa | 0 mm | - | - | - |
| 1788080792 | 17.78° C | 81% | 1009.2 hPa | 0 mm | - | - | - |
| 1788079891 | 17.78° C | 84% | 1009.1 hPa | 0 mm | - | - | - |
| 1788078991 | 16.67° C | 86% | 1009 hPa | 0 mm | - | - | - |
| 1788078090 | 15.56° C | 90% | 1008.9 hPa | 0 mm | - | - | - |
| 1788077190 | 16.67° C | 85% | 1008.7 hPa | 0 mm | - | - | - |
| 1788076290 | 16.67° C | 82% | 1008.4 hPa | 0 mm | - | - | - |
| 1788075390 | 16.67° C | 82% | 1008.4 hPa | 0 mm | - | - | - |
| 1788074489 | 16.67° C | 82% | 1008.2 hPa | 0 mm | - | - | - |
| 1788073589 | 16.67° C | 82% | 1007.9 hPa | 0 mm | - | - | - |
| 1788072688 | 16.67° C | 82% | 1007.7 hPa | 0 mm | - | - | - |
| 1788071788 | 16.67° C | 81% | 1007.6 hPa | 0 mm | - | - | - |
| 1788070888 | 16.67° C | 83% | 1007.4 hPa | 0 mm | - | - | - |
* Rain latest hour (hover to see other rain measurements)
** Current wind speed in m/s (hover to see current wind gust speed)